When you browse on this site, cookies collect data to enhance your experience and personalize the content and advertising you see.
Visit our Privacy Policy to learn more. By continuing to use the site, you agree to this use of cookies and data.
  • In Romania
  • List of Countries
  • For 7 days
  • Water Temperature
  • Weather Map
  • Weather Widgets
  • user-avatar
    Login

    Hourly Weather Verona

    Today, 22 November, Friday

    Time Temperature Precipitation Wind Pressure Humidity
    00:00 +10°C° 0 mm 1 mps 755 mmHg 89%
    01:00 +9°C° 0 mm 2 mps 754 mmHg 89%
    02:00 +9°C° 0 mm 2 mps 754 mmHg 88%
    03:00 +9°C° 0 mm 2 mps 754 mmHg 88%
    04:00 +9°C° 0 mm 2 mps 754 mmHg 87%
    05:00 +9°C° 0 mm 2 mps 754 mmHg 86%
    06:00 +9°C° 0 mm 2 mps 754 mmHg 85%
    07:00 +9°C° 0 mm 2 mps 754 mmHg 84%
    08:00 +10°C° 0 mm 3 mps 754 mmHg 82%
    09:00 +10°C° 0 mm 3 mps 754 mmHg 79%
    10:00 +11°C° 0 mm 3 mps 754 mmHg 76%
    11:00 +12°C° 0 mm 3 mps 754 mmHg 75%
    12:00 +13°C° 0 mm 3 mps 754 mmHg 74%
    13:00 +13°C° 0 mm 3 mps 754 mmHg 73%
    14:00 +13°C° 0.2 mm 3 mps 754 mmHg 76%
    15:00 +12°C° 0.2 mm 3 mps 754 mmHg 79%
    16:00 +13°C° 0.2 mm 2 mps 753 mmHg 81%
    17:00 +12°C° 0.1 mm 3 mps 753 mmHg 82%
    18:00 +11°C° 0.1 mm 3 mps 754 mmHg 83%
    19:00 +11°C° 0.1 mm 3 mps 754 mmHg 83%
    20:00 +11°C° 0 mm 3 mps 754 mmHg 83%
    21:00 +11°C° 0 mm 3 mps 754 mmHg 83%
    22:00 +11°C° 0 mm 3 mps 754 mmHg 82%
    23:00 +11°C° 0 mm 4 mps 754 mmHg 82%

    Tomorrow, 23 November, Saturday

    Time Temperature Precipitation Wind Pressure Humidity
    00:00 +11°C° 0 mm 4 mps 753 mmHg 81%
    01:00 +11°C° 0 mm 4 mps 753 mmHg 80%
    02:00 +11°C° 0.1 mm 4 mps 753 mmHg 80%
    03:00 +10°C° 0.1 mm 5 mps 752 mmHg 80%
    04:00 +10°C° 0.1 mm 5 mps 752 mmHg 79%
    05:00 +10°C° 0.3 mm 5 mps 752 mmHg 81%
    06:00 +10°C° 0.3 mm 5 mps 752 mmHg 82%
    07:00 +10°C° 0.3 mm 5 mps 751 mmHg 84%
    08:00 +10°C° 0.4 mm 5 mps 751 mmHg 84%
    09:00 +10°C° 0.4 mm 5 mps 751 mmHg 84%
    10:00 +10°C° 0.4 mm 5 mps 751 mmHg 85%
    11:00 +12°C° 0.3 mm 5 mps 751 mmHg 84%
    12:00 +12°C° 0.3 mm 5 mps 750 mmHg 83%
    13:00 +12°C° 0.3 mm 5 mps 750 mmHg 82%
    14:00 +13°C° 0.3 mm 5 mps 750 mmHg 81%
    15:00 +13°C° 0.3 mm 5 mps 749 mmHg 80%
    16:00 +13°C° 0.3 mm 5 mps 749 mmHg 79%
    17:00 +13°C° 0.1 mm 6 mps 749 mmHg 78%
    18:00 +13°C° 0.1 mm 6 mps 749 mmHg 77%
    19:00 +13°C° 0.1 mm 6 mps 749 mmHg 76%
    20:00 +13°C° 0.4 mm 6 mps 750 mmHg 77%
    21:00 +13°C° 0.4 mm 6 mps 750 mmHg 79%
    22:00 +13°C° 0.4 mm 6 mps 750 mmHg 81%
    23:00 +13°C° 0.6 mm 6 mps 750 mmHg 81%

    Day after tomorrow, 24 November, Sunday

    Time Temperature Precipitation Wind Pressure Humidity
    00:00 +12°C° 0.6 mm 7 mps 750 mmHg 81%
    01:00 +12°C° 0.6 mm 7 mps 750 mmHg 82%
    02:00 +12°C° 0.4 mm 7 mps 750 mmHg 81%
    03:00 +12°C° 0.4 mm 7 mps 750 mmHg 80%
    04:00 +13°C° 0.4 mm 6 mps 750 mmHg 80%
    05:00 +13°C° 0.3 mm 6 mps 750 mmHg 79%
    06:00 +13°C° 0.3 mm 5 mps 750 mmHg 78%
    07:00 +13°C° 0.3 mm 5 mps 750 mmHg 77%
    08:00 +13°C° 0 mm 5 mps 751 mmHg 78%
    09:00 +14°C° 0 mm 6 mps 751 mmHg 79%
    10:00 +14°C° 0 mm 6 mps 751 mmHg 80%
    11:00 +14°C° 0.3 mm 6 mps 751 mmHg 81%
    12:00 +14°C° 0.3 mm 6 mps 752 mmHg 82%
    13:00 +14°C° 0.3 mm 6 mps 752 mmHg 84%
    14:00 +14°C° 0.4 mm 6 mps 752 mmHg 84%
    15:00 +14°C° 0.4 mm 5 mps 752 mmHg 85%
    16:00 +13°C° 0.4 mm 5 mps 752 mmHg 86%
    17:00 +13°C° 0.2 mm 4 mps 752 mmHg 84%
    18:00 +13°C° 0.2 mm 4 mps 753 mmHg 82%
    19:00 +13°C° 0.2 mm 4 mps 753 mmHg 81%
    20:00 +13°C° 0.1 mm 3 mps 753 mmHg 81%
    21:00 +13°C° 0.1 mm 3 mps 753 mmHg 81%
    22:00 +14°C° 0.1 mm 2 mps 754 mmHg 81%
    23:00 +14°C° 0.1 mm 2 mps 753 mmHg 81%

    25 November, Monday

    Time Temperature Precipitation Wind Pressure Humidity
    00:00 +14°C° 0.1 mm 2 mps 753 mmHg 81%
    01:00 +13°C° 0.1 mm 2 mps 753 mmHg 81%
    02:00 +13°C° 0 mm 2 mps 753 mmHg 81%
    03:00 +13°C° 0 mm 2 mps 753 mmHg 82%
    04:00 +13°C° 0 mm 2 mps 753 mmHg 82%
    05:00 +12°C° 0 mm 2 mps 753 mmHg 81%
    06:00 +12°C° 0 mm 2 mps 753 mmHg 80%
    07:00 +12°C° 0 mm 2 mps 753 mmHg 79%
    08:00 +13°C° 0 mm 2 mps 753 mmHg 77%
    09:00 +13°C° 0 mm 2 mps 753 mmHg 74%
    10:00 +14°C° 0 mm 2 mps 753 mmHg 71%
    11:00 +15°C° 0 mm 2 mps 753 mmHg 70%
    12:00 +16°C° 0 mm 2 mps 752 mmHg 68%
    13:00 +16°C° 0 mm 2 mps 752 mmHg 67%
    14:00 +16°C° 0 mm 2 mps 752 mmHg 70%
    15:00 +15°C° 0 mm 2 mps 752 mmHg 73%
    16:00 +14°C° 0 mm 2 mps 752 mmHg 77%
    17:00 +14°C° 0 mm 2 mps 752 mmHg 78%
    18:00 +13°C° 0 mm 2 mps 752 mmHg 79%
    19:00 +13°C° 0 mm 1 mps 753 mmHg 79%
    20:00 +12°C° 0 mm 1 mps 753 mmHg 79%
    21:00 +12°C° 0 mm 1 mps 753 mmHg 79%
    22:00 +12°C° 0 mm 1 mps 753 mmHg 79%
    23:00 +12°C° 0 mm 1 mps 753 mmHg 79%

    26 November, Tuesday

    Time Temperature Precipitation Wind Pressure Humidity
    00:00 +12°C° 0 mm 1 mps 753 mmHg 79%
    01:00 +11°C° 0 mm 1 mps 753 mmHg 79%
    02:00 +11°C° 0 mm 1 mps 753 mmHg 80%
    03:00 +11°C° 0 mm 1 mps 753 mmHg 80%
    04:00 +11°C° 0 mm 1 mps 753 mmHg 80%
    05:00 +11°C° 0 mm 1 mps 753 mmHg 81%
    06:00 +10°C° 0 mm 1 mps 753 mmHg 82%
    07:00 +10°C° 0 mm 1 mps 754 mmHg 82%
    08:00 +11°C° 0 mm 1 mps 754 mmHg 80%
    09:00 +12°C° 0 mm 1 mps 754 mmHg 77%
    10:00 +13°C° 0 mm 1 mps 754 mmHg 74%
    11:00 +14°C° 0 mm 1 mps 754 mmHg 72%
    12:00 +14°C° 0 mm 1 mps 754 mmHg 71%
    13:00 +15°C° 0 mm 1 mps 753 mmHg 69%
    14:00 +15°C° 0 mm 1 mps 753 mmHg 73%
    15:00 +14°C° 0 mm 1 mps 753 mmHg 76%
    16:00 +13°C° 0 mm 0 mps 753 mmHg 80%
    17:00 +12°C° 0 mm 0 mps 754 mmHg 82%
    18:00 +11°C° 0 mm 0 mps 754 mmHg 84%
    19:00 +11°C° 0 mm 0 mps 754 mmHg 86%
    20:00 +10°C° 0 mm 0 mps 754 mmHg 87%
    21:00 +10°C° 0 mm 0 mps 754 mmHg 87%
    22:00 +10°C° 0 mm 0 mps 754 mmHg 87%
    23:00 +10°C° 0 mm 0 mps 754 mmHg 87%

    27 November, Wednesday

    Time Temperature Precipitation Wind Pressure Humidity
    00:00 +10°C° 0 mm 0 mps 754 mmHg 87%
    01:00 +10°C° 0 mm 0 mps 754 mmHg 87%
    02:00 +10°C° 0 mm 0 mps 753 mmHg 87%
    03:00 +10°C° 0 mm 0 mps 753 mmHg 88%
    04:00 +10°C° 0 mm 0 mps 753 mmHg 88%
    05:00 +10°C° 0 mm 0 mps 752 mmHg 88%
    06:00 +10°C° 0 mm 0 mps 752 mmHg 88%
    07:00 +10°C° 0 mm 0 mps 752 mmHg 88%
    08:00 +10°C° 0.2 mm 0 mps 752 mmHg 89%
    09:00 +10°C° 0.2 mm 0 mps 752 mmHg 90%
    10:00 +11°C° 0.2 mm 0 mps 752 mmHg 91%
    11:00 +11°C° 0.3 mm 0 mps 752 mmHg 91%
    12:00 +11°C° 0.3 mm 0 mps 751 mmHg 91%
    13:00 +11°C° 0.3 mm 0 mps 751 mmHg 91%
    14:00 +12°C° 0.4 mm 1 mps 751 mmHg 92%
    15:00 +12°C° 0.4 mm 1 mps 750 mmHg 92%
    16:00 +11°C° 0.4 mm 1 mps 750 mmHg 93%
    17:00 +12°C° 0.3 mm 1 mps 750 mmHg 93%
    18:00 +12°C° 0.3 mm 1 mps 750 mmHg 93%
    19:00 +12°C° 0.3 mm 1 mps 750 mmHg 92%
    20:00 +12°C° 0.3 mm 1 mps 750 mmHg 93%
    21:00 +12°C° 0.3 mm 1 mps 750 mmHg 93%
    22:00 +12°C° 0.3 mm 1 mps 751 mmHg 93%
    23:00 +12°C° 0.1 mm 1 mps 750 mmHg 94%
    Show more